{"data":{"norad_id":63851,"intl_designator":"2025-093R","name":"STARLINK-33776","alt_names":[],"object_type":"PAYLOAD","status":"ACTIVE","operator":null,"country":"US","launch_date":"2025-05-07","launch_site_code":"AFETR","launch_vehicle":null,"mission":null,"orbit_class":"UNKNOWN","rcs_meters":null,"size_class":null,"mass_kg":null,"dimensions":null,"purposes":["comms"],"wikipedia_slug":null,"has_3d_model":false,"image_url":null,"decayed_at":null,"tle_current":{"epoch":"2026-05-24T22:12:02.451168Z","epoch_age_seconds":75530,"freshness":"FRESH","line1":"1 63851U 25093R   26144.92502837  .00014075  00000+0  51979-3 0  9995","line2":"2 63851  43.0009   7.1650 0001078 278.0473  82.0256 15.27594124 59622","mean_motion":15.27594124,"eccentricity":0.0001078,"inclination_deg":43.0009,"raan_deg":7.165,"arg_perigee_deg":278.0473,"mean_anomaly_deg":82.0256,"bstar":0.00051979,"rev_number":5962,"period_min":94.26587713164,"perigee_km":482.26717272636,"apogee_km":483.7464353305,"semimajor_km":6861.1438040284,"source":"CELESTRAK","updated_at":"2026-05-25T13:38:20.149420Z"}}}